Simultaneous Nadir Overpasses (SNOs) Predictions

Prediction of SNOs between GOES-16 and METOP-A Satellite Orbit:

Table of predicted SNOs for the next 14.0 days since TLE Epoch: 2/26/2022
Index Date Time (GOES-16) GOES-16 Lat,Lon METOP-A Lat,Lon Distance(km) Time Diff (sec)
1 02/26/2022 13:12:28 0.01, -75.22 0.07, -75.58 40.42 80
2 02/27/2022 01:28:52 -0.01, -75.19 -0.92, -79.53 492.21 80
3 03/01/2022 00:54:58 -0.01, -75.20 0.73, -71.87 379.66 80
4 03/01/2022 13:14:16 0.02, -75.23 0.14, -75.87 72.89 80
5 03/04/2022 00:56:32 -0.02, -75.23 0.62, -72.10 354.58 80
6 03/04/2022 13:16:02 0.03, -75.26 0.21, -76.16 102.77 80
7 03/07/2022 00:58:08 -0.02, -75.27 0.60, -72.36 331.18 80
8 03/07/2022 13:17:48 0.03, -75.30 0.27, -76.45 130.80 80
9 03/10/2022 00:59:43 -0.02, -75.32 0.54, -72.60 308.74 80
10 03/10/2022 13:19:32 0.03, -75.35 0.31, -76.74 157.50 80
